Time,TemperatureF,DewpointF,PressureIn,WindDirection,WindDirectionDegrees,WindSpeedMPH,WindSpeedGustMPH,Humidity,HourlyPrecipIn,Conditions,Clouds,dailyrainin,SoftwareType,DateUTC
2013-12-19 00:21:00,37.0,19.0,-100.00,East,79,1.0,2.0,48,-99.99,,,-99.99,,2013-12-19 08:21:00,
2013-12-19 00:32:00,37.0,19.0,-100.00,East,79,1.0,2.0,48,-99.99,,,-99.99,,2013-12-19 08:32:00,
2013-12-19 00:42:00,37.0,19.0,-100.00,East,79,1.0,2.0,48,-99.99,,,-99.99,,2013-12-19 08:42:00,
2013-12-19 00:52:00,37.0,19.0,-100.00,ENE,59,3.0,5.0,48,-99.99,,,-99.99,,2013-12-19 08:52:00,
2013-12-19 01:02:00,37.0,19.0,-100.00,ENE,59,3.0,5.0,48,-99.99,,,-99.99,,2013-12-19 09:02:00,
2013-12-19 01:11:00,37.0,19.0,-100.00,ENE,59,3.0,5.0,48,-99.99,,,-99.99,,2013-12-19 09:11:00,
2013-12-19 01:43:00,38.0,22.0,-100.00,NE,47,4.0,6.0,51,-99.99,,,-99.99,,2013-12-19 09:43:00,
2013-12-19 02:12:00,35.0,21.0,-100.00,NE,56,4.0,6.0,56,-99.99,,,-99.99,,2013-12-19 10:12:00,
2013-12-19 02:23:00,35.0,21.0,-100.00,NE,56,4.0,6.0,56,-99.99,,,-99.99,,2013-12-19 10:23:00,
2013-12-19 02:43:00,33.0,20.0,-100.00,NE,48,2.0,3.0,58,-99.99,,,-99.99,,2013-12-19 10:43:00,
2013-12-19 02:53:00,33.0,21.0,-100.00,North,-999,0.0,1.0,60,-99.99,,,-99.99,,2013-12-19 10:53:00,
2013-12-19 03:02:00,33.0,21.0,-100.00,North,-999,0.0,1.0,60,-99.99,,,-99.99,,2013-12-19 11:02:00,
2013-12-19 03:12:00,33.0,21.0,-100.00,North,-999,0.0,1.0,60,-99.99,,,-99.99,,2013-12-19 11:12:00,
2013-12-19 03:22:00,33.0,21.0,-100.00,North,-999,0.0,1.0,60,-99.99,,,-99.99,,2013-12-19 11:22:00,
2013-12-19 03:33:00,33.0,21.0,-100.00,North,-999,0.0,1.0,60,-99.99,,,-99.99,,2013-12-19 11:33:00,
2013-12-19 03:42:00,33.0,21.0,-100.00,North,-999,0.0,1.0,60,-99.99,,,-99.99,,2013-12-19 11:42:00,
2013-12-19 04:21:00,34.0,21.0,-100.00,North,-999,0.0,0.0,58,-99.99,,,-99.99,,2013-12-19 12:21:00,
2013-12-19 04:30:00,33.0,20.0,-100.00,North,-999,0.0,0.0,59,-99.99,,,-99.99,,2013-12-19 12:30:00,
2013-12-19 04:42:00,33.0,19.0,-100.00,ENE,65,3.0,6.0,57,-99.99,,,-99.99,,2013-12-19 12:42:00,
2013-12-19 04:52:00,33.0,19.0,-100.00,ENE,65,3.0,6.0,57,-99.99,,,-99.99,,2013-12-19 12:52:00,
2013-12-19 05:11:00,33.0,20.0,-100.00,North,-999,0.0,0.0,59,-99.99,,,-99.99,,2013-12-19 13:11:00,
2013-12-19 05:21:00,33.0,20.0,-100.00,North,-999,0.0,0.0,59,-99.99,,,-99.99,,2013-12-19 13:21:00,
2013-12-19 05:52:00,31.0,20.0,-100.00,West,271,1.0,2.0,64,-99.99,,,-99.99,,2013-12-19 13:52:00,
2013-12-19 06:02:00,31.0,20.0,-100.00,West,271,1.0,2.0,64,-99.99,,,-99.99,,2013-12-19 14:02:00,
2013-12-19 06:12:00,31.0,20.0,-100.00,West,271,1.0,2.0,64,-99.99,,,-99.99,,2013-12-19 14:12:00,
2013-12-19 06:21:00,30.0,22.0,-100.00,WNW,289,1.0,2.0,72,-99.99,,,-99.99,,2013-12-19 14:21:00,
2013-12-19 06:32:00,30.0,22.0,-100.00,WNW,289,1.0,2.0,72,-99.99,,,-99.99,,2013-12-19 14:32:00,
2013-12-19 06:42:00,30.0,22.0,-100.00,WNW,289,1.0,2.0,72,-99.99,,,-99.99,,2013-12-19 14:42:00,
2013-12-19 07:22:00,28.0,21.0,-100.00,North,-999,0.0,2.0,74,-99.99,,,-99.99,,2013-12-19 15:22:00,
2013-12-19 07:33:00,28.0,21.0,-100.00,North,-999,0.0,2.0,74,-99.99,,,-99.99,,2013-12-19 15:33:00,
2013-12-19 07:54:00,28.0,21.0,-100.00,North,-999,0.0,1.0,74,-99.99,,,-99.99,,2013-12-19 15:54:00,
2013-12-19 08:12:00,28.0,21.0,-100.00,North,-999,0.0,2.0,75,-99.99,,,-99.99,,2013-12-19 16:12:00,
2013-12-19 08:23:00,28.0,21.0,-100.00,North,-999,0.0,2.0,75,-99.99,,,-99.99,,2013-12-19 16:23:00,
2013-12-19 08:42:00,28.0,21.0,-100.00,West,275,1.0,2.0,75,-99.99,,,-99.99,,2013-12-19 16:42:00,
2013-12-19 09:12:00,28.0,20.0,-100.00,North,352,1.0,3.0,72,-99.99,,,-99.99,,2013-12-19 17:12:00,
2013-12-19 09:22:00,28.0,19.0,-100.00,West,272,3.0,7.0,69,-99.99,,,-99.99,,2013-12-19 17:22:00,
2013-12-19 09:33:00,28.0,19.0,-100.00,West,272,3.0,7.0,69,-99.99,,,-99.99,,2013-12-19 17:33:00,
2013-12-19 09:42:00,28.0,19.0,-100.00,West,272,3.0,7.0,69,-99.99,,,-99.99,,2013-12-19 17:42:00,
2013-12-19 09:52:00,28.0,17.0,-100.00,North,356,1.0,3.0,63,-99.99,,,-99.99,,2013-12-19 17:52:00,
2013-12-19 10:12:00,27.0,18.0,-100.00,SSW,192,2.0,6.0,67,-99.99,,,-99.99,,2013-12-19 18:12:00,
2013-12-19 10:22:00,28.0,17.0,-100.00,North,356,1.0,3.0,63,-99.99,,,-99.99,,2013-12-19 18:22:00,
2013-12-19 10:32:00,28.0,17.0,-100.00,North,356,1.0,3.0,63,-99.99,,,-99.99,,2013-12-19 18:32:00,
2013-12-19 10:42:00,28.0,17.0,-100.00,North,356,1.0,3.0,63,-99.99,,,-99.99,,2013-12-19 18:42:00,
2013-12-19 13:11:00,26.0,13.0,-100.00,WNW,282,2.0,5.0,58,-99.99,,,-99.99,,2013-12-19 21:11:00,
2013-12-19 13:43:00,26.0,12.0,-100.00,ENE,65,6.0,13.0,56,-99.99,,,-99.99,,2013-12-19 21:43:00,
2013-12-19 14:13:00,26.0,12.0,-100.00,SSW,196,4.0,8.0,55,-99.99,,,-99.99,,2013-12-19 22:13:00,
2013-12-19 14:23:00,27.0,12.0,-100.00,ENE,58,2.0,6.0,53,-99.99,,,-99.99,,2013-12-19 22:23:00,
2013-12-19 14:33:00,27.0,12.0,-100.00,ENE,58,2.0,6.0,53,-99.99,,,-99.99,,2013-12-19 22:33:00,
2013-12-19 14:42:00,27.0,12.0,-100.00,ENE,58,2.0,6.0,53,-99.99,,,-99.99,,2013-12-19 22:42:00,
2013-12-19 14:53:00,26.0,11.0,-100.00,SE,145,3.0,13.0,52,-99.99,,,-99.99,,2013-12-19 22:53:00,
2013-12-19 15:03:00,26.0,11.0,-100.00,SE,145,3.0,13.0,52,-99.99,,,-99.99,,2013-12-19 23:03:00,
2013-12-19 15:12:00,26.0,11.0,-100.00,SE,145,3.0,13.0,52,-99.99,,,-99.99,,2013-12-19 23:12:00,
2013-12-19 15:22:00,25.0,10.0,-100.00,SSE,161,3.0,8.0,52,-99.99,,,-99.99,,2013-12-19 23:22:00,
2013-12-19 15:42:00,24.0,10.0,-100.00,SSE,168,1.0,2.0,55,-99.99,,,-99.99,,2013-12-19 23:42:00,
2013-12-19 15:53:00,24.0,10.0,-100.00,SSE,168,1.0,2.0,55,-99.99,,,-99.99,,2013-12-19 23:53:00,
2013-12-19 16:02:00,24.0,10.0,-100.00,SSE,168,1.0,2.0,55,-99.99,,,-99.99,,2013-12-20 00:02:00,
2013-12-19 16:21:00,24.0,10.0,-100.00,WSW,258,2.0,5.0,54,-99.99,,,-99.99,,2013-12-20 00:21:00,
2013-12-19 16:42:00,24.0,10.0,-100.00,SE,124,1.0,9.0,54,-99.99,,,-99.99,,2013-12-20 00:42:00,
2013-12-19 17:11:00,24.0,11.0,-100.00,West,261,2.0,5.0,56,-99.99,,,-99.99,,2013-12-20 01:11:00,
2013-12-19 17:21:00,23.0,10.0,-100.00,NE,42,2.0,5.0,56,-99.99,,,-99.99,,2013-12-20 01:21:00,
2013-12-19 17:32:00,23.0,10.0,-100.00,NE,42,2.0,5.0,56,-99.99,,,-99.99,,2013-12-20 01:32:00,
2013-12-19 17:42:00,23.0,10.0,-100.00,NE,42,2.0,5.0,56,-99.99,,,-99.99,,2013-12-20 01:42:00,
2013-12-19 17:52:00,22.0,9.0,-100.00,ENE,78,4.0,12.0,56,-99.99,,,-99.99,,2013-12-20 01:52:00,
2013-12-19 18:01:00,22.0,9.0,-100.00,ENE,78,4.0,12.0,56,-99.99,,,-99.99,,2013-12-20 02:01:00,
2013-12-19 18:11:00,22.0,9.0,-100.00,ENE,78,4.0,12.0,56,-99.99,,,-99.99,,2013-12-20 02:11:00,
2013-12-19 18:21:00,22.0,9.0,-100.00,South,188,1.0,3.0,57,-99.99,,,-99.99,,2013-12-20 02:21:00,
2013-12-19 18:42:00,21.0,9.0,-100.00,NE,55,3.0,13.0,59,-99.99,,,-99.99,,2013-12-20 02:42:00,
2013-12-19 18:52:00,21.0,9.0,-100.00,NE,55,3.0,13.0,59,-99.99,,,-99.99,,2013-12-20 02:52:00,
2013-12-19 19:02:00,21.0,9.0,-100.00,NE,55,3.0,13.0,59,-99.99,,,-99.99,,2013-12-20 03:02:00,
2013-12-19 19:44:00,21.0,10.0,-100.00,West,263,2.0,4.0,61,-99.99,,,-99.99,,2013-12-20 03:44:00,
2013-12-19 20:13:00,21.0,10.0,-100.00,West,272,3.0,5.0,61,-99.99,,,-99.99,,2013-12-20 04:13:00,
2013-12-19 20:23:00,21.0,10.0,-100.00,West,272,3.0,5.0,61,-99.99,,,-99.99,,2013-12-20 04:23:00,
2013-12-19 20:42:00,21.0,9.0,-100.00,NW,312,1.0,3.0,60,-99.99,,,-99.99,,2013-12-20 04:42:00,
2013-12-19 20:52:00,21.0,9.0,-100.00,NW,312,1.0,3.0,60,-99.99,,,-99.99,,2013-12-20 04:52:00,
2013-12-19 21:22:00,20.0,8.0,-100.00,NW,313,1.0,3.0,59,-99.99,,,-99.99,,2013-12-20 05:22:00,
2013-12-19 21:43:00,20.0,8.0,-100.00,SSW,198,2.0,5.0,59,-99.99,,,-99.99,,2013-12-20 05:43:00,
2013-12-19 21:53:00,20.0,8.0,-100.00,SSW,198,2.0,5.0,59,-99.99,,,-99.99,,2013-12-20 05:53:00,
2013-12-19 22:02:00,20.0,8.0,-100.00,SSW,198,2.0,5.0,59,-99.99,,,-99.99,,2013-12-20 06:02:00,
2013-12-19 22:22:00,19.0,7.0,-100.00,SSE,152,1.0,5.0,58,-99.99,,,-99.99,,2013-12-20 06:22:00,
2013-12-19 22:43:00,19.0,7.0,-100.00,NW,323,4.0,9.0,59,-99.99,,,-99.99,,2013-12-20 06:43:00,
2013-12-19 23:12:00,19.0,8.0,-100.00,West,261,3.0,6.0,61,-99.99,,,-99.99,,2013-12-20 07:12:00,
2013-12-19 23:42:00,18.0,6.0,-100.00,WNW,284,2.0,5.0,60,-99.99,,,-99.99,,2013-12-20 07:42:00,
2013-12-19 23:52:00,18.0,6.0,-100.00,NE,34,5.0,8.0,60,-99.99,,,-99.99,,2013-12-20 07:52:00,